Location: Caser�o La Pineda
(41.2677°N, 1.9887°E)
Time: 18:20:02
(UTC+00:00)

Daily predictions for brighter satellites

Satellite Brightness Start Highest point End
(mag) Time Altitude Azimuth Time Altitude Azimuth Time Altitude Azimuth
deb Chang Zheng 4 3.6 17:30:06 10° SSE 17:34:11 56° ENE 17:38:19 10° N
ARGOS 3.8 17:30:25 10° SE 17:35:09 33° ENE 17:39:55 10° N
Genesis I 4.4 17:32:52 10° N 17:36:21 26° NE 17:39:49 10° ESE
Cosmos 405 3.2 17:34:14 10° SSW 17:37:39 73° W 17:41:05 10° N
CZ-2C R/B 3.2 17:37:30 10° S 17:38:35 11° SSE 17:39:37 10° SE
Cosmos 1697 Rocket 2.7 17:34:22 10° SSW 17:39:59 71° ESE 17:45:38 10° NNE
Cosmos 1125 Rocket 3.8 17:35:11 10° S 17:40:12 46° ESE 17:45:12 10° NNE
Cosmos 1908 4.1 17:40:39 10° SSE 17:44:02 29° E 17:47:26 10° NNE
Cosmos 2098 4.4 17:42:56 10° SSE 17:45:51 43° E 17:48:43 10° NNE
Cosmos 1356 3.3 17:46:00 10° N 17:49:23 63° E 17:52:43 10° SSE
Meteor 1-24 Rocket 4.5 17:44:44 10° NNW 17:50:22 61° W 17:56:09 10° S
Cosmos 2278 4.4 17:46:00 10° SSE 17:50:57 32° ESE 17:55:58 10° NE
Cosmos 2227 Rocket 2.3 17:45:26 10° NNW 17:51:08 88° WSW 17:56:47 10° SSE
Iridium 4 Rocket 4.4 17:49:53 10° NNE 17:53:14 21° E 17:56:45 10° SE
Cosmos 494 Rocket 4.1 17:49:04 10° N 17:54:12 53° ENE 17:59:14 10° SE
Landsat 5 3.6 17:50:38 10° NNE 17:54:56 64° ESE 17:59:21 10° S
Cosmos 1726 4.3 17:53:47 10° SW 17:56:59 29° WNW 18:00:11 10° NNW
MOS 1-B Rocket 4.2 17:50:20 10° NNE 17:57:10 57° E 18:03:02 10° S
CZ-2C R/B 2.8 17:51:48 10° NNE 17:57:22 59° E 18:02:49 10° S
SKYMED 2 3.5 17:53:34 10° NNE 17:57:56 74° ESE 18:02:15 10° S
Timation 2 Rocket 4.2 17:51:08 10° NNW 17:58:03 77° ENE 18:04:45 10° SSE
Cosmos 1470 4.4 17:55:11 10° SSW 17:58:56 40° WNW 18:02:42 10° N
Okean O Rocket 1.5 17:56:36 10° SSE 18:00:54 70° ENE 18:05:14 10° N
Meteor 1-16 Rocket 4.5 17:57:49 10° SSE 18:03:31 52° E 18:09:11 10° NNE
Cosmos 1758 3.9 18:01:49 10° SSW 18:05:46 61° W 18:09:43 10° N
CZ-4 R/B 2.1 18:03:42 10° SE 18:07:12 32° ENE 18:10:47 10° N
YAOGAN 1 3.2 18:04:04 10° SE 18:07:58 34° ENE 18:11:53 10° N
SL-16 R/B 3.6 18:05:26 10° SE 18:08:39 16° E 18:08:50 16° E
GPS 2-04 Rocket1 4.1 18:05:35 10° WSW 18:08:49 27° SSW 18:11:45 11° SE
Cosmos 1703 3.7 18:05:46 10° N 18:09:27 38° ENE 18:13:06 10° SSE
Okean-O 3.9 18:07:42 16° ESE 18:09:46 21° ENE 18:13:07 10° NNE
Cosmos 1455 Rocket 3.4 18:08:09 10° SSE 18:12:16 42° E 18:16:28 10° NNE
Spot 2 3.9 18:12:13 10° SSE 18:16:10 57° ENE 18:20:15 10° N
Cosmos 2082 3.6 18:10:41 10° NNW 18:16:20 74° ENE 18:21:55 10° SSE
Cosmos 1953 2.2 18:12:23 10° S 18:16:23 67° E 18:20:25 10° NNE
Tiangong 3.2 18:16:39 10° S 18:18:26 14° SSE 18:18:36 14° SE
Cosmos 2150 Rocket 4.4 18:14:21 10° SSW 18:19:46 70° WNW 18:25:10 10° NNE
IRIS 4.1 18:18:33 10° W 18:20:48 48° SSW 18:21:41 30° SE
H-2A R/B 2.4 18:17:20 10° NNE 18:21:09 36° E 18:24:58 10° SSE
Cosmos 1727 Rocket 4.2 18:15:51 10° N 18:22:03 74° W 18:28:12 10° S
Okean 1-7 Rocket 4.4 18:18:59 10° NNE 18:22:51 29° ENE 18:24:34 22° ESE
Meteor 1-21 Rocket 4.2 18:19:15 10° N 18:25:06 75° E 18:31:00 10° SSE
Cosmos 1544 Rocket 4.2 18:21:32 10° SSE 18:25:32 34° E 18:29:34 10° NNE
Cosmos 2322 Rocket 4.2 18:23:18 10° SE 18:23:24 10° SE 18:23:24 10° SE
H-2A R/B 3.1 18:24:52 10° S 18:30:00 51° W 18:35:17 10° NNW
ATLAS 3B R/B 3.6 18:27:05 10° WSW 18:33:19 46° NW 18:39:51 10° NNE
Cosmos 1300 3.3 18:30:13 10° SSE 18:38:01 - NNE 18:33:12 34° ESE
Cosmos 405 Rocket 2.6 18:35:11 10° N 18:39:06 67° E 18:42:45 12° SSE
CZ-4B R/B 4.5 18:33:47 10° S 18:39:07 44° W 18:44:33 10° NNW
ATLAS 5 CENTAUR R/B 1.2 18:39:33 10° SSW 18:43:23 86° SE 18:45:39 26° NE
COSMO-SKYMED 1 4.4 18:42:01 10° N 18:45:54 33° WNW 18:49:46 10° SW
NOSS 3-1 (C) 3.8 18:43:52 10° S 18:47:41 31° SE 18:47:41 31° SE
HJ-1C 3.2 18:51:07 57° S 18:51:42 86° WSW 18:54:58 10° NNW
SL-8 R/B 3.6 18:47:53 10° SW 18:52:38 65° SE 18:53:45 48° E
Cosmos 2227 4.5 18:48:10 10° NNW 18:53:45 47° ENE 18:55:04 40° E
IRS-1C Rocket 3.9 18:49:56 10° SSE 18:55:09 77° ENE 19:00:26 10° N
Cosmos 1605 Rocket 4.0 18:49:57 10° SSE 18:55:55 53° E 19:02:02 10° NNE
H-2A R/B 3.3 18:51:42 10° S 18:56:02 53° W 19:00:16 10° NNW
SL-08 RB Rocket 4.3 18:54:33 10° S 18:58:58 57° W 19:03:29 10° NNW
Cosmos 1892 Rocket 4.4 18:55:52 10° NNW 19:00:13 51° W 19:04:30 10° S
Cosmos 1535 Rocket 4.4 18:54:26 10° S 19:00:38 81° E 19:06:58 10° N
Cosmos 1980 Rocket 3.2 18:59:51 10° SW 19:05:16 47° WNW 19:10:46 10° NNE
X-37B 2.0 19:05:50 10° W 19:08:08 36° NW 19:08:08 36° NW
Cosmos 489 Rocket 4.3 19:03:49 10° NNW 19:10:04 88° ENE 19:13:46 26° SSE
CSL-04 Debris 4.0 19:08:41 37° SSE 19:10:51 76° ENE 19:16:16 10° N
Cosmos 2263 Rocket 2.0 19:05:36 10° NNW 19:11:12 81° ENE 19:12:46 49° SE
Cosmos 1269 Rocket 3.9 19:07:50 10° NNW 19:13:09 85° ENE 19:14:31 52° SSE
CZ-2C R/B 3.3 19:14:41 10° SW 19:15:35 15° SW 19:15:35 15° SW
Cosmos 724 4.1 19:20:28 10° NNW 19:26:27 81° ENE 19:26:54 75° ESE
Cosmos 371 Rocket 3.4 19:24:20 10° SSW 19:28:53 74° WSW 19:28:53 74° WSW
Cosmos 1626 Rocket 4.4 19:25:16 10° N 19:28:11 42° NNW 19:28:11 42° NNW
CSL-04 Rocket 3.7 19:30:11 51° S 19:31:36 79° WSW 19:37:11 10° NNW
MetOp-A 4.4 19:31:02 33° S 19:33:23 65° WSW 19:38:44 10° NNW
CZ-4 R/B 4.0 19:39:27 10° SW 19:42:15 19° W 19:45:06 10° NW
Gbstr 26 Del rocket 4.3 19:35:21 10° NW 19:42:57 82° NE 19:44:00 70° E
Okean-O 4.0 19:45:17 34° WSW 19:46:00 36° W 19:50:06 10° NNW
Cosmos 1844 Rocket 4.3 19:42:04 10° N 19:44:20 22° N 19:44:20 22° N
SL-16 R/B 2.7 19:46:25 10° SSW 19:50:51 54° SW 19:50:51 54° SW
Cosmos 2322 Rocket 4.4 20:04:29 10° SSW 20:05:21 15° SW 20:05:21 15° SW
Cosmos 2344 4.3 20:05:09 10° NNW 20:14:36 77° NE 20:15:56 70° ESE
